User: anonymous
Location: Del Oro Observatory
(38.3044°N, 104.8119°W)
Time: 10:24:42
(UTC-06:00)
Language:

Cosmos 1602 Rocket - Orbit

View from above orbital plane
View from above orbital plane
View from above satellite
View from above satellite

Ground track
Ground track

The orbit data is extracted from the following two-line orbital elements,

1 15332U 84105B   14106.19449541  .00000391  00000-0  45479-4 0  6152
2 15332 082.5366 190.1040 0020730 223.8175 195.7820 14.82676022594953
Epoch (UTC): 16 April 2014 04:40:04
Eccentricity: 0.0020730
inclination: 82.5366°
perigee height: 606 km
apogee height: 635 km
right ascension of ascending node: 190.1040°
argument of perigee: 223.8175°
revolutions per day: 14.82676022
mean anomaly at epoch: 195.7820°
orbit number at epoch: 59495

The dashed part of the orbit path shows where the satellite is in the earth's shadow,  

DLR